Location: Seattle
(47.6064°N, 122.3308°W)
Time: 08:39:43
(UTC-07:00)

Tiros 1 despin weight - Visible Passes

Search period start: 12 May 2021 00:00
Search period end: 22 May 2021 00:00
Orbit: 593 x 642 km, 48.2° (Epoch: 12 May)

Date Brightness Start Highest point End Pass type
(mag) Time Alt. Az. Time Alt. Az. Time Alt. Az.
12 May ? 00:39:08 10° W 00:43:51 82° N 00:48:34 10° E visible
12 May ? 02:20:47 10° WNW 02:25:27 65° SSW 02:30:04 10° ESE visible
12 May ? 04:02:55 10° W 04:06:28 22° SW 04:09:58 10° S visible
12 May ? 21:32:52 10° SW 21:37:12 39° SSE 21:41:34 10° E visible
12 May ? 23:13:50 10° WSW 23:18:33 88° SSE 23:23:16 10° E visible
13 May ? 00:55:30 10° W 01:00:13 88° N 01:01:19 53° E visible
13 May ? 02:37:10 10° W 02:48:07 - SE 02:38:17 17° W visible
13 May ? 21:48:47 10° SW 21:53:22 58° SSE 21:57:59 10° ENE visible
13 May ? 23:30:11 10° W 23:34:54 83° N 23:39:02 13° E visible
14 May ? 01:11:50 10° WNW 01:16:01 67° WSW 01:16:01 67° WSW visible
14 May ? 22:04:57 10° WSW 22:09:38 78° SSE 22:14:20 10° E visible
14 May ? 23:46:34 10° W 23:51:17 84° N 23:53:58 25° E visible
15 May ? 01:28:12 10° WNW 01:30:59 33° W 01:30:59 33° W visible
15 May ? 22:21:15 10° W 22:25:57 88° N 22:30:40 10° E visible
16 May ? 00:02:55 10° W 00:07:38 87° S 00:09:01 46° ESE visible
16 May ? 01:44:37 10° W 01:46:01 18° W 01:46:01 18° W visible
16 May ? 22:37:37 10° W 22:42:19 82° N 22:47:02 10° E visible
17 May ? 00:19:15 10° WNW 00:23:56 69° SSW 00:24:06 68° S visible
17 May ? 22:53:59 10° W 22:58:41 86° N 23:02:13 18° E visible
18 May ? 00:35:37 10° W 00:39:13 42° WSW 00:39:13 42° WSW visible
18 May ? 21:28:41 10° W 21:33:21 84° N 21:38:05 10° E visible
18 May ? 23:10:19 10° W 23:15:01 80° SSW 23:17:22 30° ESE visible
19 May ? 00:52:06 10° W 00:54:23 23° WSW 00:54:23 23° WSW visible
19 May ? 21:45:03 10° W 21:49:44 83° N 21:54:27 10° E visible
19 May ? 23:26:40 10° WNW 23:31:18 60° SSW 23:32:33 43° SSE visible
20 May ? 01:08:54 10° W 01:09:34 13° W 01:09:34 13° W visible
20 May ? 22:01:23 10° W 22:06:05 89° S 22:10:44 10° ESE visible
20 May ? 23:43:03 10° W 23:47:28 41° SSW 23:47:45 40° SSW visible
21 May ? 22:17:44 10° WNW 22:22:24 73° SSW 22:25:58 17° ESE visible
